Weather History for KMRY - October, 2012

Change the Weather History Date:

Monday, October 29, 2012

  Actual Average Record
Temperature  
Mean Temperature 58 °F 57 °F  
Max Temperature 66 °F 66 °F 85 °F (2014)
Min Temperature 49 °F 49 °F 43 °F (2009)
Degree Days  
Heating Degree Days 7    
Month to date heating degree days 131  
Since 1 July heating degree days 660  
Cooling Degree Days 0    
Month to date cooling degree days 26  
Year to date cooling degree days 26  
Growing Degree Days 7 (Base 50)    
Moisture  
Dew Point 52 °F    
Average Humidity 86    
Maximum Humidity 100    
Minimum Humidity 72    
Precipitation  
Precipitation 0.00 in - 0.16 in (2000)
Month to date precipitation 0.59  
Year to date precipitation 8.31  
Since 1 July precipitation 0.66  
Sea Level Pressure  
Sea Level Pressure 30.09 in    
Wind  
Wind Speed 3 mph (East)    
Max Wind Speed 10 mph    
Max Gust Speed 13 mph    
Visibility 4 miles    
Events Fog    
T = Trace of Precipitation, MM = Missing Value Source: NWS Daily Summary

Daily Weather History Graph

Daily Weather History Graph

Search for Another Location

Airport or City:

Trip Planner

Search our weather history database for the weather conditions in past years. The results will help you decide how hot, cold, wet, or windy it might be!

Date:

Astronomy

Oct. 29, 2012 Rise Set
Actual Time 7:28 AM PDT 6:13 PM PDT
Civil Twilight 7:01 AM PDT 6:39 PM PDT
Nautical Twilight 6:31 AM PDT 7:10 PM PDT
Astronomical Twilight 6:01 AM PDT 7:40 PM PDT
Moon 6:09 PM PDT (10/29) 7:23 AM PDT (10/29)
Length of Visible Light 11h 37m
Length of Day
10h 44m
Full, 100% of the Moon is Illuminated
Oct 29
Full
Oct 29
Full
Nov 6
Last Quarter
Nov 13
New
Nov 20
First Quarter

Hourly Weather History & Observations

Time (PDT) Temp. Dew Point Humidity Pressure Visibility Wind Dir Wind Speed Gust Speed Precip Events Conditions
12:08 AM 53.6 °F 53.6 °F 100% 30.04 in 0.2 mi Calm Calm - N/A Fog Fog
12:15 AM 53.6 °F 53.6 °F 100% 30.04 in 0.2 mi Calm Calm - N/A Fog Fog
12:45 AM 53.6 °F 53.6 °F 100% 30.05 in 0.2 mi Calm Calm - N/A Fog Fog
12:54 AM 53.1 °F 53.1 °F 100% 30.09 in 0.2 mi SE 5.8 mph - N/A Fog Fog
1:06 AM 53.6 °F 53.6 °F 100% 30.05 in 0.5 mi East 5.8 mph - N/A Fog Fog
1:29 AM 53.6 °F 53.6 °F 100% 30.04 in 0.2 mi East 3.5 mph - N/A Fog Fog
1:47 AM 53.6 °F 53.6 °F 100% 30.05 in 0.8 mi Calm Calm - N/A   Mist
1:54 AM 53.1 °F 53.1 °F 100% 30.09 in 0.5 mi Calm Calm - N/A Fog Fog
2:02 AM 53.6 °F 51.8 °F 94% 30.05 in 0.2 mi West 4.6 mph - N/A Fog Fog
2:10 AM 53.6 °F 53.6 °F 100% 30.05 in 0.2 mi Calm Calm - N/A Fog Fog
2:54 AM 53.1 °F 53.1 °F 100% 30.09 in 0.2 mi Calm Calm - N/A Fog Fog
3:11 AM 53.6 °F 51.8 °F 94% 30.05 in 0.2 mi Calm Calm - N/A Fog Fog
3:54 AM 52.0 °F 52.0 °F 100% 30.09 in 0.2 mi ESE 3.5 mph - N/A Fog Fog
4:54 AM 53.1 °F 52.0 °F 96% 30.09 in 0.2 mi East 4.6 mph - N/A Fog Fog
5:52 AM 53.6 °F 53.6 °F 100% 30.07 in 0.5 mi South 4.6 mph - 0.01 in Fog Fog
5:54 AM 53.1 °F 53.1 °F 100% 30.11 in 0.5 mi South 3.5 mph - 0.01 in Fog Fog
6:13 AM 53.6 °F 53.6 °F 100% 30.07 in 0.2 mi SSW 3.5 mph - N/A Fog Fog
6:54 AM 52.0 °F 51.1 °F 97% 30.11 in 0.2 mi East 3.5 mph - N/A Fog Fog
7:22 AM 50.0 °F 50.0 °F 100% 30.07 in 1.0 mi East 6.9 mph - N/A   Mist
7:26 AM 50.0 °F 50.0 °F 100% 30.07 in 4.0 mi East 5.8 mph - N/A   Overcast
7:52 AM 50.0 °F 48.2 °F 94% 30.08 in 10.0 mi East 4.6 mph - N/A   Scattered Clouds
7:54 AM 50.0 °F 48.9 °F 96% 30.12 in 10.0 mi ESE 4.6 mph - N/A   Scattered Clouds
8:54 AM 52.0 °F 51.1 °F 97% 30.13 in 10.0 mi Calm Calm - N/A   Clear
9:21 AM 53.6 °F 51.8 °F 94% 30.11 in 6.0 mi WNW 5.8 mph - N/A   Scattered Clouds
9:24 AM 53.6 °F 51.8 °F 94% 30.11 in 0.2 mi West 4.6 mph - N/A Fog Fog
9:52 AM 53.6 °F 53.6 °F 100% 30.11 in 0.8 mi Calm Calm - N/A   Mist
9:54 AM 53.1 °F 53.1 °F 100% 30.15 in 0.8 mi Calm Calm - N/A   Overcast
10:17 AM 53.6 °F 53.6 °F 100% 30.10 in 2.0 mi ENE 3.5 mph - N/A   Overcast
10:19 AM 53.6 °F 53.6 °F 100% 30.10 in 4.0 mi ENE 3.5 mph - N/A   Scattered Clouds
10:54 AM 62.1 °F 55.0 °F 78% 30.14 in 10.0 mi NW 3.5 mph - N/A   Clear
11:54 AM 64.9 °F 55.0 °F 70% 30.12 in 10.0 mi WNW 4.6 mph - N/A   Clear
1:54 PM 62.1 °F 54.0 °F 75% 30.11 in 10.0 mi North 4.6 mph - N/A   Clear
2:54 PM 61.0 °F 54.0 °F 78% 30.10 in 10.0 mi NW 8.1 mph - N/A   Clear
3:54 PM 63.0 °F 54.0 °F 72% 30.09 in 10.0 mi North 4.6 mph - N/A   Clear
4:54 PM 63.0 °F 54.0 °F 72% 30.10 in 10.0 mi SW 4.6 mph - N/A   Clear
5:54 PM 61.0 °F 54.0 °F 78% 30.11 in 10.0 mi Variable 5.8 mph - N/A   Clear
6:54 PM 57.0 °F 53.1 °F 87% 30.12 in 10.0 mi WSW 3.5 mph - N/A   Clear
7:15 PM 57.2 °F 53.6 °F 88% 30.09 in 10.0 mi West 3.5 mph - N/A   Scattered Clouds
7:23 PM 55.4 °F 53.6 °F 94% 30.09 in 10.0 mi WSW 5.8 mph - N/A   Mostly Cloudy
7:54 PM 55.9 °F 53.1 °F 90% 30.12 in 10.0 mi West 3.5 mph - N/A   Mostly Cloudy
8:07 PM 55.4 °F 53.6 °F 94% 30.09 in 10.0 mi West 3.5 mph - N/A   Scattered Clouds
8:54 PM 55.0 °F 52.0 °F 89% 30.12 in 10.0 mi Calm Calm - N/A   Clear
9:26 PM 53.6 °F 51.8 °F 94% 30.08 in 10.0 mi Calm Calm - N/A   Mostly Cloudy
9:49 PM 51.8 °F 50.0 °F 94% 30.08 in 10.0 mi Calm Calm - N/A   Scattered Clouds
9:54 PM 52.0 °F 48.9 °F 89% 30.12 in 10.0 mi Calm Calm - N/A   Partly Cloudy
10:29 PM 51.8 °F 48.2 °F 88% 30.08 in 1.2 mi ENE 3.5 mph - N/A   Scattered Clouds
10:32 PM 50.0 °F 48.2 °F 94% 30.08 in 0.2 mi ENE 4.6 mph - N/A Fog Fog
10:54 PM 50.0 °F 50.0 °F 100% 30.11 in 0.5 mi East 4.6 mph - N/A Fog Fog
11:04 PM 51.8 °F 50.0 °F 94% 30.07 in 2.0 mi East 3.5 mph - N/A   Mostly Cloudy
11:12 PM 51.8 °F 50.0 °F 94% 30.07 in 10.0 mi ENE 3.5 mph - N/A   Mostly Cloudy
11:31 PM 51.8 °F 51.8 °F 100% 30.07 in 0.8 mi Calm Calm - N/A   Mist
11:35 PM 51.8 °F 51.8 °F 100% 30.07 in 0.2 mi Calm Calm - N/A Fog Fog
11:44 PM 51.8 °F 51.8 °F 100% 30.07 in 1.0 mi Calm Calm - N/A   Mostly Cloudy
11:46 PM 51.8 °F 50.0 °F 94% 30.07 in 4.0 mi Calm Calm - N/A   Mostly Cloudy
11:54 PM 51.1 °F 48.9 °F 92% 30.10 in 10.0 mi Calm Calm - N/A   Scattered Clouds